Powrót do katalogu

WILDFIRE 6

AktywnyNaukaPO
NORAD 57763·PAYLOAD·🇺🇸 United States

Wystrzelony Sep 2, 2023 z Vandenberg Space Force Base

Loading…

Następne Przeloty (najbliższe 24 godziny)

TLE

ŚwieżeSource: Space-Track

Epoka: Sep 14, 2026, 01:49 UTC

1 57763U 23133G   26257.07581368  .00000054  00000-0  37106-4 0  9990
2 57763  80.9919 281.7434 0007285 133.9097 226.2663 13.85680865153320

Śledź WILDFIRE 6 w czasie rzeczywistym z AllMySat

Download on the App Store